Miscellaneous Local Product
Issued by NWS Hastings, NE

Home | Current Version | Previous Version | Text Only | Print | Product List | Glossary Off
Versions: 1 2 3 4 5 6 7 8 9 10 11 12 13 14 15 16 17 18 19 20 21 22 23 24 25 26 27 28 29 30 31 32 33 34 35 36 37 38 39 40 41 42 43 44 45 46 47 48 49 50

000
AXUS43 KGID 280402
MISGRI

GID CWA HOURLY WEATHER ROUNDUP
NATIONAL WEATHER SERVICE HASTINGS NE
1100 PM CDT THU AUG 27 2015

NOTE: "FAIR" INDICATES FEW OR NO CLOUDS BELOW 12,000 FEET WITH NO
SIGNIFICANT WEATHER AND/OR OBSTRUCTIONS TO VISIBILITY.

...SOUTH CENTRAL NEBRASKA...

CITY           SKY/WX    TMP DP  RH WIND       PRES   REMARKS
GRAND ISLAND   CLOUDY    75  66  73 S15       29.84R
HASTINGS       CLOUDY    75  66  73 S15G23    29.83R
KEARNEY        MOCLDY    73  64  73 S13G18    29.84R
ORD            CLOUDY    71  68  90 N9        29.85R
YORK           CLOUDY    75  66  73 S14       29.84R
AURORA         CLOUDY    75  65  70 S15G25    29.84R
LEXINGTON      CLEAR     72  68  89 NW13      29.85S
HOLDREGE       PTCLDY    71  64  76 S9        29.84S
HEBRON         CLOUDY    75  64  67 S16G23    29.84F

...NEBRASKA PANHANDLE...

CITY           SKY/WX    TMP DP  RH WIND       PRES   REMARKS
CHADRON        PTCLDY    58  54  86 CALM      30.04R
ALLIANCE       PTCLDY    57  54  89 NW5       30.07R
SCOTTSBLUFF    MOCLDY    66  55  67 CALM      30.07R
SIDNEY         PTCLDY    62  54  74 N7        30.09R

...WESTERN AND NORTH CENTRAL NEBRASKA...

CITY           SKY/WX    TMP DP  RH WIND       PRES   REMARKS
VALENTINE      NOT AVBL
AINSWORTH      LGT RAIN  71  70  97 N7        29.94S
ONEILL         MOCLDY    69  68  96 SE9       29.91R
BROKEN BOW     PTCLDY    69  66  90 N6        29.88R
IMPERIAL       MOCLDY    70  60  70 N9        29.99R
NORTH PLATTE   PTCLDY    70  65  84 W8        29.93R
MCCOOK         MOCLDY    77  65  66 N15       29.89R

...EASTERN NEBRASKA...

CITY           SKY/WX    TMP DP  RH WIND       PRES   REMARKS
NORFOLK        HVY RAIN  70  68  93 E16       29.88F FOG
SO SIOUX CITY  CLOUDY    68  63  84 E16G24    29.93S
TEKAMAH        CLOUDY    71  67  87 E7        29.94F
COLUMBUS       CLOUDY   N/A N/A N/A E12G18    29.87R
ALBION         CLOUDY    70  66  89 SE14      29.85F
OMAHA EPPLEY   LGT RAIN  72  66  81 SE15      29.93F
OFFUTT AFB     MOCLDY    70  66  87 SE12      29.91F
MILLARD        CLOUDY    73  67  83 SE9       29.92S
LINCOLN        LGT RAIN  73  65  75 SE18G30   29.83F
NEBRASKA CITY  RAIN      70  67  91 S7        29.94S
BEATRICE       CLOUDY    71  65  81 S15       29.87F
FALLS CITY     CLOUDY    70  67  90 SE10      29.93F

...NORTHERN KANSAS...

CITY           SKY/WX    TMP DP  RH WIND       PRES   REMARKS
GOODLAND       PTCLDY    73  60  63 NW9       30.00R
HILL CITY      CLOUDY    79  63  57 S13G21    29.87R
NORTON         CLEAR     75  57  53 NE5       29.86R
PHILLIPSBURG   CLEAR     81  64  57 SE14G24   29.86R
SMITH CENTER   PTCLDY    72  66  83 SE21G28   29.86S
HAYS           MOCLDY    79  61  53 S22G28    29.87R
RUSSELL        MOCLDY    75  69  81 S15       29.85F
CONCORDIA      CLOUDY    74  67  78 S17       29.90R
SALINA         LGT RAIN  78  68  71 CALM      29.96R
TOPEKA         CLOUDY    71  67  87 SE7       29.97F



USA.gov is the U.S. government's official web portal to all federal, state and local government web resources and services.